Temperature
7 6 6 6 6 5 5 5 5 4 5 5 5 5 5 5 5 5 5 5 5 5 5 5 5 5 5 5 4 4 4 4 4 4 4 4 4 4
6 6 6 6 6 5 5 5 5 4 4 5 5 5 5 5 4 4 4 4 4 4 4 4 4 4 4 4 4 4 4 4 4 4 4 3 3 3
6 6 6 5 5 5 5 5 4 4 4 4 4 4 4 4 4 4 4 4 4 4 4 4 4 4 4 4 4 4 4 3 3 3 3 3 3 3
5 5 5 5 5 5 4 4 4 4 3 4 4 4 4 4 4 4 4 3 3 3 4 3 3 3 3 3 3 3 3 3 3 3 3 3 3 2
5 5 5 5 5 4 4 4 4 3 3 3 3 3 3 3 3 3 3 3 3 3 3 3 3 3 3 3 3 3 3 3 2 2 2 2 2 2
5 4 4 4 4 4 4 3 3 3 3 2 2 3 2 2 2 3 3 3 3 3 3 3 3 3 3 2 2 2 2 2 2 2 2 2 2 1
4 4 4 4 3 3 3 3 3 2 2 2 2 2 2 2 2 2 2 2 2 2 2 2 2 2 2 2 2 2 2 2 1 1 1 1 1 1
4 3 3 3 3 3 3 2 2 2 2 1 1 1 1 1 1 1 1 1 1 1 1 2 1 2 2 2 2 1 1 1 1 1 1 0 0 0
3 3 3 3 2 2 2 2 2 1 1 1 1 1 1 1 0 0 0 0 0 0 0 1 1 1 1 1 1 1 1 1 0 0 0 0 -0 -0
3 2 2 2 2 2 1 1 1 1 1 1 1 0 0 0 -0 -0 -1 -0 -0 0 -0 -0 1 1 1 1 1 1 0 0 -0 -0 -1 -1 -1 -1
2 2 2 2 1 1 1 1 1 1 0 0 0 -0 -0 -0 -1 -1 -1 -1 -1 -1 -1 -1 -1 -0 0 0 0 0 -0 -1 -1 -1 -1 -1 -1 -1
2 1 1 1 1 1 0 0 0 0 0 -0 -0 -0 -1 -1 -1 -1 -1 -2 -2 -2 -1 -2 -2 -2 -2 -1 -1 -1 -1 -1 -1 -2 -2 -2 -2 -2
1 1 1 1 1 0 0 -0 -0 -0 -1 -1 -1 -1 -1 -1 -1 -1 -2 -2 -2 -2 -2 -2 -2 -3 -3 -3 -2 -1 -2 -2 -2 -2 -2 -2 -2 -2
1 1 1 0 0 -0 -0 -0 -1 -1 -1 -1 -1 -1 -1 -1 -2 -2 -2 -2 -2 -2 -2 -3 -3 -3 -4 -4 -3 -2 -2 -2 -3 -2 -2 -3 -3 -3
-0 -0 -0 -0 -0 -1 -1 -1 -1 -1 -1 -1 -1 -1 -2 -2 -2 -2 -2 -2 -2 -2 -3 -3 -3 -3 -4 -4 -4 -4 -3 -3 -3 -3 -3 -3 -3 -3
-1 -1 -1 -1 -1 -1 -1 -1 -2 -2 -2 -2 -2 -2 -2 -2 -2 -3 -3 -3 -3 -2 -3 -3 -3 -4 -4 -4 -4 -4 -4 -4 -4 -4 -4 -4 -4 -3
-1 -1 -1 -1 -1 -1 -2 -2 -2 -2 -2 -2 -3 -2 -3 -3 -3 -3 -3 -3 -3 -3 -3 -3 -4 -4 -4 -5 -5 -4 -4 -4 -4 -5 -5 -4 -4 -4
-2 -2 -2 -2 -2 -2 -2 -2 -2 -3 -3 -3 -3 -3 -3 -3 -4 -4 -4 -4 -4 -4 -4 -4 -4 -5 -5 -5 -5 -5 -5 -5 -5 -5 -5 -5 -5 -4
-3 -2 -2 -3 -3 -3 -3 -3 -3 -3 -3 -3 -4 -4 -4 -4 -4 -4 -4 -5 -5 -5 -5 -5 -5 -6 -6 -6 -5 -5 -5 -5 -5 -5 -5 -5 -5 -5
-3 -3 -3 -3 -3 -3 -3 -3 -3 -4 -4 -4 -4 -4 -4 -5 -5 -5 -5 -5 -5 -5 -5 -5 -5 -6 -6 -6 -6 -5 -5 -6 -6 -6 -6 -6 -6 -5
-3 -3 -4 -4 -4 -4 -4 -4 -4 -4 -4 -4 -4 -5 -5 -5 -5 -5 -5 -5 -6 -6 -6 -6 -6 -6 -6 -7 -7 -6 -5 -6 -6 -6 -6 -6 -6 -6
-4 -4 -4 -4 -4 -4 -5 -5 -4 -4 -4 -5 -5 -5 -5 -5 -5 -6 -6 -6 -6 -6 -6 -6 -6 -6 -7 -7 -7 -7 -6 -6 -6 -6 -6 -7 -7 -7
-4 -4 -5 -5 -5 -5 -5 -5 -5 -5 -5 -5 -5 -6 -6 -6 -6 -6 -6 -6 -6 -7 -7 -7 -7 -7 -7 -7 -7 -7 -7 -6 -6 -6 -6 -6 -7 -7
Wind_Speed
4 4 4 3 3 3 3 3 3 2 3 3 2 2 4 6 7 8 9 10 11 12 12 11 11 10 10 10 11 11 11 11 11 11 11 11 11 12
4 5 4 4 3 3 3 3 3 4 4 3 3 3 4 5 7 8 10 11 11 11 11 11 11 11 11 11 11 12 12 12 12 12 12 11 12 12
4 5 6 5 4 4 3 3 4 4 5 4 3 3 3 4 6 7 8 9 10 11 12 12 12 12 12 12 12 12 12 13 13 13 13 12 12 12
5 5 6 5 5 5 4 5 4 5 5 6 3 3 4 4 4 4 6 8 9 11 12 12 12 13 13 13 13 13 13 13 13 13 13 13 13 13
5 5 5 5 6 5 5 5 4 4 4 5 5 3 3 3 3 4 4 5 8 10 11 12 12 13 13 13 13 13 13 13 13 13 13 13 14 14
5 5 5 6 7 7 6 6 5 4 4 4 5 4 3 3 2 3 5 4 5 7 9 10 11 12 12 13 13 13 13 14 14 14 14 13 14 14
5 5 5 6 7 6 5 6 6 5 4 4 5 4 3 3 3 3 5 5 5 3 4 5 6 7 9 11 12 13 13 13 14 14 14 14 14 14
5 4 4 6 7 8 9 8 7 6 5 5 4 5 5 4 4 4 4 4 5 2 3 5 4 6 6 8 12 14 14 13 13 13 13 14 14 15
4 4 4 4 5 4 6 8 8 9 9 6 6 6 6 5 4 5 5 5 6 4 3 6 4 6 6 10 13 13 12 12 12 13 13 14 15 15
4 5 5 5 4 5 4 4 5 6 7 6 6 7 6 6 5 5 6 6 6 4 3 5 4 5 5 8 11 11 11 12 12 12 13 14 14 15
5 5 5 5 8 8 5 5 6 6 8 10 11 11 12 12 8 3 3 4 6 4 3 3 3 4 5 5 7 9 10 10 11 12 12 13 14 13
4 5 7 8 9 9 6 6 7 7 5 5 6 8 8 9 10 6 5 5 5 5 3 3 3 2 4 3 3 5 6 9 10 11 12 13 13 9
4 4 4 8 10 10 9 6 9 7 5 5 4 5 4 5 5 6 6 6 7 7 4 3 3 3 3 4 4 4 4 4 6 8 11 13 13 10
5 4 5 8 9 10 8 9 11 9 3 3 4 5 5 5 5 5 7 8 9 9 7 5 4 4 5 6 6 4 3 4 5 6 6 10 11 12
4 7 8 10 9 7 8 10 8 4 3 5 6 6 5 5 4 4 5 6 7 9 10 9 6 5 6 7 6 5 5 4 4 4 4 5 5 5
4 6 8 8 6 6 6 5 4 4 5 6 5 5 3 3 4 3 4 4 4 5 6 9 8 7 6 7 7 8 6 4 4 4 5 6 5 6
4 3 2 3 3 3 3 4 4 4 5 4 5 5 4 4 4 3 3 4 4 5 5 3 5 6 7 7 7 8 7 6 6 5 5 6 6 5
5 4 4 4 5 5 5 5 4 4 5 5 5 5 5 5 5 4 4 5 6 6 6 4 3 3 3 5 8 8 6 6 5 5 4 6 7 5
5 4 5 5 5 5 5 5 5 5 4 4 5 5 5 5 5 5 5 5 6 6 5 4 3 4 6 7 4 6 5 5 4 4 5 5 7 6
4 5 5 5 5 5 5 5 5 5 4 5 5 5 5 5 5 6 5 6 6 6 5 4 5 5 6 7 5 4 6 5 4 5 5 5 5 8
5 5 5 5 5 5 5 5 5 5 5 5 5 6 5 5 6 6 6 8 6 6 6 6 5 6 4 3 4 4 4 6 7 5 4 4 5 4
5 6 5 5 5 5 5 5 5 5 5 5 6 6 5 5 6 7 6 6 6 6 6 5 3 3 2 4 6 6 6 5 6 8 9 8 4 3
6 6 5 5 5 5 5 6 6 6 5 5 5 6 5 5 5 6 6 6 5 5 5 4 3 2 3 4 5 5 6 5 4 4 5 8 11 13
Wind_Direction
209 210 211 215 205 204 195 186 190 251 268 260 267 271 284 287 291 296 291 292 295 295 297 297 295 295 295 297 298 299 300 301 301 300 301 300 301 302
210 211 218 217 211 205 202 201 197 207 248 251 253 270 284 292 296 295 292 293 295 292 293 294 293 291 291 292 293 292 292 292 294 295 294 295 297 296
219 215 223 216 212 211 203 202 205 205 243 268 254 266 269 279 299 300 297 293 294 293 292 291 290 288 287 288 289 289 288 288 290 291 292 291 292 291
227 220 227 219 217 214 208 210 213 210 225 263 274 265 261 266 279 285 293 296 292 293 293 291 288 286 285 286 286 286 285 284 284 286 287 288 289 287
223 222 226 214 223 219 215 216 220 222 218 244 269 269 272 280 293 288 284 287 293 294 294 289 287 285 283 283 283 283 282 282 280 279 281 283 285 284
226 225 225 217 223 219 218 218 217 221 221 237 259 270 272 281 279 289 301 290 291 298 293 290 289 289 287 285 284 282 281 279 278 278 278 280 280 279
233 230 230 229 229 226 224 215 209 215 221 234 253 267 270 277 275 275 287 298 291 275 289 288 287 284 283 283 283 280 279 278 277 276 277 279 280 277
236 240 241 243 244 245 245 240 221 216 221 229 247 252 263 258 263 271 282 302 300 280 292 289 278 276 275 273 279 280 278 279 278 277 278 280 281 280
232 236 249 246 247 236 250 254 248 243 236 228 238 247 255 249 253 268 262 264 270 278 294 286 278 276 275 276 281 279 277 278 278 278 280 281 281 280
232 229 236 246 240 232 229 241 248 250 248 239 234 243 245 244 240 252 263 273 274 266 239 270 280 276 283 279 277 275 277 278 279 281 283 283 282 281
243 234 233 240 252 252 239 241 254 260 261 252 253 257 263 267 260 257 262 276 284 272 220 245 277 289 286 279 276 277 280 283 285 287 288 289 286 283
255 246 245 246 254 255 237 233 252 259 251 261 263 266 266 268 265 244 235 251 269 274 224 220 261 296 298 279 283 288 286 287 291 292 293 293 290 286
258 255 251 260 262 260 250 235 249 259 247 246 256 259 259 256 255 244 231 233 247 256 232 208 246 248 258 288 291 276 268 276 286 288 292 292 290 284
257 257 257 267 269 267 262 256 263 269 248 246 257 259 257 256 252 250 245 241 241 249 247 228 239 247 263 278 279 279 275 269 273 282 282 289 291 288
260 265 270 273 275 272 266 268 268 252 239 249 256 258 251 250 253 260 259 256 259 257 251 238 236 246 251 263 271 277 287 279 264 267 275 280 283 285
278 278 282 279 273 266 272 274 255 238 240 247 255 256 253 254 256 253 261 267 274 276 256 245 238 236 251 258 264 272 269 266 266 268 277 281 277 267
277 274 275 278 268 264 262 257 248 246 250 245 250 259 260 260 262 252 251 256 260 275 280 262 244 243 245 252 264 265 266 268 265 271 279 284 279 269
280 265 264 262 262 262 261 261 250 245 246 246 251 255 259 262 266 262 255 253 261 266 268 267 263 280 278 263 240 254 260 264 269 269 269 280 285 277
272 261 261 261 260 257 254 254 255 248 242 244 250 254 255 257 260 261 256 258 262 264 263 255 246 253 275 283 264 231 242 266 274 277 268 264 276 282
255 258 261 260 258 258 257 256 256 253 246 246 249 251 249 251 256 257 255 255 261 267 268 254 241 243 254 269 276 276 251 252 262 271 278 279 277 281
264 259 258 259 259 256 257 256 254 252 250 249 250 249 247 245 252 254 257 258 261 264 266 265 253 249 253 265 277 280 276 256 251 257 269 283 291 295
266 264 263 259 258 257 257 257 258 256 251 250 251 251 248 245 250 252 253 256 257 260 267 271 261 252 241 258 272 281 289 291 279 271 261 251 253 254
267 266 264 261 257 255 255 255 256 259 255 251 253 252 249 248 248 250 253 254 257 261 266 273 274 264 260 259 267 277 280 289 296 300 293 281 266 262
Height
1498 1499 1499 1499 1500 1500 1500 1501 1501 1498 1496 1497 1497 1497 1497 1497 1496 1494 1493 1492 1491 1490 1489 1488 1487 1486 1485 1483 1482 1481 1480 1479 1478 1477 1476 1475 1474 1473
1494 1494 1495 1495 1496 1496 1496 1496 1496 1496 1493 1492 1493 1494 1493 1492 1491 1490 1489 1488 1487 1486 1484 1483 1482 1481 1480 1478 1477 1476 1475 1474 1473 1471 1470 1469 1468 1467
1489 1490 1490 1491 1491 1491 1491 1492 1492 1492 1489 1488 1489 1489 1488 1487 1486 1485 1484 1482 1481 1480 1479 1478 1477 1476 1474 1473 1472 1470 1469 1468 1467 1466 1465 1464 1463 1462
1485 1485 1485 1486 1486 1486 1486 1486 1487 1486 1485 1483 1483 1483 1482 1482 1480 1479 1478 1477 1476 1475 1474 1473 1471 1470 1469 1467 1466 1465 1464 1462 1462 1461 1460 1458 1457 1456
1480 1480 1480 1480 1480 1481 1481 1481 1481 1481 1480 1479 1477 1477 1477 1476 1475 1474 1473 1471 1470 1469 1468 1467 1466 1464 1463 1461 1460 1459 1458 1457 1455 1454 1453 1452 1451 1450
1475 1475 1475 1475 1475 1475 1475 1476 1476 1476 1475 1474 1473 1472 1471 1470 1470 1468 1467 1466 1464 1463 1462 1461 1460 1458 1457 1455 1454 1453 1451 1450 1449 1448 1447 1446 1445 1444
1470 1470 1470 1470 1470 1470 1470 1470 1470 1470 1470 1468 1467 1466 1466 1465 1465 1463 1461 1459 1458 1457 1456 1455 1453 1452 1450 1449 1447 1446 1445 1444 1442 1441 1440 1439 1438 1437
1465 1465 1465 1465 1465 1465 1465 1465 1465 1464 1463 1463 1462 1461 1460 1460 1459 1458 1456 1454 1451 1452 1450 1448 1447 1445 1444 1443 1441 1440 1438 1437 1436 1435 1433 1432 1431 1430
1461 1460 1460 1460 1460 1460 1459 1459 1459 1458 1459 1458 1456 1455 1455 1455 1454 1452 1451 1449 1447 1446 1444 1440 1441 1439 1438 1436 1435 1433 1432 1430 1429 1428 1426 1425 1424 1423
1457 1456 1456 1455 1455 1455 1454 1453 1453 1453 1453 1452 1452 1450 1450 1450 1449 1447 1445 1443 1441 1441 1439 1435 1433 1432 1431 1429 1428 1426 1425 1424 1422 1421 1419 1418 1416 1415
1452 1452 1451 1450 1450 1449 1449 1448 1448 1448 1448 1447 1447 1446 1445 1444 1443 1442 1440 1438 1435 1434 1433 1431 1427 1425 1423 1422 1421 1420 1419 1417 1416 1414 1412 1410 1409 1408
1448 1447 1446 1445 1445 1444 1444 1443 1442 1442 1442 1441 1441 1440 1439 1439 1438 1437 1435 1433 1430 1428 1427 1426 1422 1421 1416 1414 1414 1414 1412 1411 1409 1407 1405 1403 1402 1400
1442 1442 1441 1441 1440 1439 1439 1438 1437 1437 1436 1435 1434 1434 1433 1432 1432 1431 1430 1428 1426 1423 1422 1421 1417 1416 1414 1409 1407 1407 1406 1404 1402 1400 1399 1397 1396 1394
1437 1437 1436 1435 1435 1434 1433 1433 1432 1432 1430 1429 1428 1427 1427 1426 1425 1425 1423 1422 1420 1418 1417 1415 1413 1411 1408 1405 1402 1400 1400 1398 1396 1394 1392 1390 1389 1388
1432 1431 1430 1430 1429 1428 1428 1427 1427 1426 1425 1423 1422 1421 1421 1420 1419 1417 1416 1414 1413 1412 1410 1409 1407 1405 1403 1400 1397 1395 1393 1391 1390 1388 1386 1384 1383 1381
1427 1426 1425 1424 1424 1423 1422 1422 1421 1420 1419 1418 1416 1415 1414 1413 1412 1411 1409 1408 1406 1404 1404 1403 1401 1400 1397 1395 1392 1389 1388 1386 1384 1382 1380 1378 1377 1375
1421 1420 1419 1419 1418 1417 1416 1416 1415 1414 1413 1412 1410 1409 1408 1407 1406 1405 1403 1401 1399 1398 1397 1396 1395 1394 1391 1389 1386 1384 1382 1380 1379 1377 1374 1372 1370 1369
1417 1415 1413 1413 1412 1411 1410 1409 1409 1408 1407 1406 1404 1403 1402 1400 1399 1398 1397 1396 1394 1392 1391 1390 1389 1387 1385 1382 1382 1379 1377 1375 1373 1372 1370 1367 1364 1364
1411 1409 1408 1407 1406 1405 1404 1403 1402 1401 1401 1399 1398 1397 1396 1395 1394 1392 1391 1390 1388 1387 1385 1384 1383 1381 1379 1376 1375 1375 1372 1370 1368 1366 1364 1362 1360 1358
1405 1404 1402 1401 1400 1399 1398 1397 1396 1395 1394 1393 1392 1391 1390 1389 1388 1386 1385 1384 1383 1381 1380 1379 1378 1376 1375 1372 1369 1368 1368 1366 1363 1361 1359 1357 1355 1353
1399 1398 1396 1395 1394 1393 1391 1390 1389 1388 1387 1387 1385 1385 1384 1383 1382 1381 1380 1378 1377 1376 1374 1373 1372 1372 1370 1368 1365 1362 1362 1361 1360 1357 1355 1353 1350 1348
1393 1392 1390 1389 1388 1386 1385 1384 1383 1382 1381 1380 1379 1378 1378 1377 1376 1375 1374 1373 1372 1371 1369 1368 1367 1366 1365 1363 1360 1358 1357 1356 1355 1353 1352 1350 1347 1344
1387 1385 1384 1383 1381 1380 1379 1378 1376 1375 1375 1374 1373 1372 1372 1371 1370 1369 1368 1367 1366 1365 1364 1362 1361 1360 1359 1358 1357 1355 1353 1351 1350 1348 1347 1346 1344 1342